Weather History for Rabat-Sale, Morocco

Change the Weather History Date:

Thursday, August 29, 2013

  Actual Average Record
Temperature  
Mean Temperature 70 °F -  
Max Temperature 78 °F 77 °F 86 °F (2004)
Min Temperature 60 °F 61 °F 57 °F (2002)
Cooling Degree Days 5    
Growing Degree Days 20 (Base 50)    
Moisture  
Dew Point 62 °F    
Average Humidity 70    
Maximum Humidity 94    
Minimum Humidity 46    
Precipitation  
Precipitation 0.00 in 0.01 in - ()
Sea Level Pressure  
Sea Level Pressure 29.96 in    
Wind  
Wind Speed 3 mph ()    
Max Wind Speed 14 mph    
Max Gust Speed -    
Visibility 4.8 miles    
Events      
Averages and records for this station are not official NWS values.
T = Trace of Precipitation, MM = Missing Value Source: Averaged Metar Reports

Daily Weather History Graph

Daily Weather History Graph

Search for Another Location

Airport:

Trip Planner

Search our weather history database for the weather conditions in past years. The results will help you decide how hot, cold, wet, or windy it might be!

Date:

Astronomy

Aug. 29, 2013 Rise Set
Actual Time 6:58 AM WEST 7:56 PM WEST
Civil Twilight 6:32 AM WEST 8:22 PM WEST
Nautical Twilight 6:02 AM WEST 8:52 PM WEST
Astronomical Twilight 5:31 AM WEST 9:23 PM WEST
Moon 12:47 AM WEST (8/29) 3:06 PM WEST (8/29)
Length of Visible Light 13h 49m
Length of Day
12h 58m
Last Quarter, 40% of the Moon is Illuminated
Aug 29
Last Quarter
Sep 5
New
Sep 12
First Quarter
Sep 19
Full
Sep 27
Last Quarter

Hourly Weather History & Observations

Time (WEST) Temp. Dew Point Humidity Pressure Visibility Wind Dir Wind Speed Gust Speed Precip Events Conditions
12:00 AM 68.0 °F 60.8 °F 78% 29.95 in 5.0 mi Calm Calm - N/A   Mostly Cloudy
12:30 AM 68.0 °F 60.8 °F 78% 29.95 in 5.0 mi Calm Calm - N/A   Mostly Cloudy
1:00 AM 69 °F 62 °F 71% 29.96 in 5 mi Calm Calm - -   Mostly Cloudy
1:00 AM 69.8 °F 62.6 °F 78% 29.95 in 5.0 mi Calm Calm - N/A   Mostly Cloudy
1:30 AM 69.8 °F 62.6 °F 78% 29.95 in 5.0 mi Calm Calm - N/A   Mostly Cloudy
2:00 AM 69.8 °F 62.6 °F 78% 29.95 in 5.0 mi Calm Calm - N/A   Mostly Cloudy
2:30 AM 69.8 °F 62.6 °F 78% 29.95 in 5.0 mi Calm Calm - N/A   Mostly Cloudy
3:00 AM 69.8 °F 62.6 °F 78% 29.95 in 5.0 mi Calm Calm - N/A   Mostly Cloudy
3:30 AM 69.8 °F 62.6 °F 78% 29.92 in 5.0 mi Calm Calm - N/A   Mostly Cloudy
4:00 AM 69 °F 63 °F 76% 29.94 in 5 mi Calm Calm - -   Mostly Cloudy
4:00 AM 69.8 °F 62.6 °F 78% 29.92 in 5.0 mi Calm Calm - N/A   Mostly Cloudy
4:30 AM 69.8 °F 62.6 °F 78% 29.92 in - Calm Calm - N/A   Unknown
5:00 AM 69.8 °F 64.4 °F 83% 29.92 in - Calm Calm - N/A   Unknown
5:30 AM 69.8 °F 62.6 °F 78% 29.92 in 5.0 mi Calm Calm - N/A   Mostly Cloudy
6:00 AM 68.0 °F 62.6 °F 83% 29.92 in 5.0 mi Calm Calm - N/A   Scattered Clouds
6:30 AM 66.2 °F 62.6 °F 88% 29.92 in 5.0 mi Calm Calm - N/A   Scattered Clouds
7:00 AM 66 °F 62 °F 83% 29.93 in 5 mi Calm Calm - -   Partly Cloudy
7:00 AM 66.2 °F 62.6 °F 88% 29.92 in 5.0 mi Calm Calm - N/A   Scattered Clouds
8:00 AM 66.2 °F 62.6 °F 88% 29.92 in 5.0 mi Calm Calm - N/A   Scattered Clouds
8:30 AM 71.6 °F 62.6 °F 73% 29.95 in 3.7 mi Calm Calm - N/A   Scattered Clouds
9:00 AM 73.4 °F 60.8 °F 65% 29.95 in 3.7 mi Calm Calm - N/A   Scattered Clouds
9:30 AM 75.2 °F 60.8 °F 61% 29.95 in 3.7 mi Calm Calm - N/A   Partly Cloudy
10:00 AM 74 °F 60 °F 53% 29.97 in 4 mi North 3.5 mph - -   Mostly Cloudy
10:00 AM 75.2 °F 60.8 °F 61% 29.98 in 3.7 mi North 3.5 mph - N/A   Mostly Cloudy
10:30 AM 75.2 °F 60.8 °F 61% 29.98 in 3.7 mi NW 6.9 mph - N/A   Mostly Cloudy
11:00 AM 75.2 °F 60.8 °F 61% 29.98 in 3.7 mi NW 6.9 mph - N/A   Mostly Cloudy
11:30 AM 75.2 °F 62.6 °F 65% 29.98 in 3.7 mi NW 6.9 mph - N/A   Mostly Cloudy
12:00 PM 77.0 °F 60.8 °F 57% 29.98 in 3.7 mi WNW 4.6 mph - N/A   Mostly Cloudy
12:30 PM 75.2 °F 60.8 °F 61% 29.98 in 5.0 mi WNW 8.1 mph - N/A   Mostly Cloudy
1:00 PM 77 °F 61 °F 48% 29.97 in 5 mi NW 8.1 mph - -   Mostly Cloudy
1:00 PM 77.0 °F 60.8 °F 57% 29.98 in 5.0 mi NW 8.1 mph - N/A   Mostly Cloudy
1:30 PM 77.0 °F 60.8 °F 57% 29.98 in 5.0 mi NW 8.1 mph - N/A   Mostly Cloudy
2:00 PM 77.0 °F 60.8 °F 57% 29.98 in 5.0 mi WNW 8.1 mph - N/A   Mostly Cloudy
2:30 PM 77.0 °F 62.6 °F 61% 29.98 in 5.0 mi NW 9.2 mph - N/A   Mostly Cloudy
3:00 PM 77.0 °F 60.8 °F 57% 29.95 in 5.0 mi WNW 10.4 mph - N/A   Mostly Cloudy
3:30 PM 77.0 °F 62.6 °F 61% 29.95 in 5.0 mi WNW 12.7 mph - N/A   Mostly Cloudy
4:00 PM 78 °F 61 °F 46% 29.95 in 5 mi WNW 11.5 mph - -   Mostly Cloudy
4:00 PM 78.8 °F 60.8 °F 54% 29.95 in 5.0 mi WNW 11.5 mph - N/A   Mostly Cloudy
4:30 PM 77.0 °F 60.8 °F 57% 29.95 in 5.0 mi NW 13.8 mph - N/A   Scattered Clouds
5:00 PM 77.0 °F 62.6 °F 61% 29.95 in 5.0 mi NW 12.7 mph - N/A   Partly Cloudy
5:30 PM 75.2 °F 62.6 °F 65% 29.95 in 5.0 mi NNW 11.5 mph - N/A   Partly Cloudy
6:00 PM 75.2 °F 62.6 °F 65% 29.95 in 5.0 mi NW 11.5 mph - N/A   Partly Cloudy
6:30 PM 75.2 °F 62.6 °F 65% 29.98 in 5.0 mi NNW 10.4 mph - N/A   Partly Cloudy
7:00 PM 74 °F 62 °F 57% 29.98 in 5 mi North 10.4 mph - -   Scattered Clouds
7:00 PM 73.4 °F 62.6 °F 69% 29.98 in 5.0 mi North 10.4 mph - N/A   Partly Cloudy
7:30 PM 73.4 °F 60.8 °F 65% 29.98 in 5.0 mi North 10.4 mph - N/A   Partly Cloudy
8:00 PM 71.6 °F 62.6 °F 73% 29.98 in 5.0 mi North 6.9 mph - N/A   Partly Cloudy
8:30 PM 69.8 °F 60.8 °F 73% 29.98 in 5.0 mi NNE 1.2 mph - N/A   Partly Cloudy
9:00 PM 68.0 °F 60.8 °F 78% 30.01 in 5.0 mi Calm Calm - N/A   Partly Cloudy
9:30 PM 66.2 °F 60.8 °F 83% 29.98 in 5.0 mi Calm Calm - N/A   Partly Cloudy
10:00 PM 64 °F 60 °F 81% 30.00 in 5 mi Calm Calm - -   Scattered Clouds
10:00 PM 64.4 °F 59.0 °F 83% 29.98 in 5.0 mi Calm Calm - N/A   Partly Cloudy
10:30 PM 64.4 °F 59.0 °F 83% 30.01 in 5.0 mi Calm Calm - N/A   Partly Cloudy
11:00 PM 62.6 °F 59.0 °F 88% 30.01 in 5.0 mi Calm Calm - N/A   Partly Cloudy
11:30 PM 60.8 °F 59.0 °F 94% 30.01 in 5.0 mi Calm Calm - N/A   Partly Cloudy